[Iaude] MPEC T62: 2016 TW10 [a=2.18,e=0.59,i=4.9,H=23.5]

mpec at si.edu mpec at si.edu
Fri Oct 7 12:17:47 EDT 2016


M.P.E.C. 2016-T62                                Issued 2016 Oct. 7, 16:04 UT
 
     The Minor Planet Electronic Circulars contain information on unusual
         minor planets and routine data on comets.  They are published
    on behalf of Division F of the International Astronomical Union by the
          Minor Planet Center, Smithsonian Astrophysical Observatory,
                          Cambridge, MA 02138, U.S.A.

             Prepared using the Tamkin Foundation Computer Network

                              MPC at CFA.HARVARD.EDU
            URL http://www.minorplanetcenter.net/    ISSN 1523-6714


                                   2016 TW10
 
Observations:
     K16T10W* C2016 10 05.19045 01 02 04.92 +39 14 26.3          18.6 VqET062703
     K16T10W  C2016 10 05.20252 01 02 07.98 +39 13 19.2          18.6 VqET062703
     K16T10W  C2016 10 05.20855 01 02 09.55 +39 12 46.3          19.0 VqET062703
     K16T10W  C2016 10 05.23262901 02 14.87 +39 10 28.7          19.4 VtET062H01
     K16T10W  C2016 10 05.23904901 02 16.44 +39 09 52.3          18.8 VtET062H01
     K16T10W  C2016 10 05.24760801 02 18.51 +39 09 03.6          18.7 VtET062H01
     K16T10W  C2016 10 05.25379401 02 20.00 +39 08 28.4          19.3 VtET062H01
     K16T10W  C2016 10 05.25923 01 02 21.98 +39 07 59.9          18.2 VqET062703
     K16T10W  C2016 10 05.27375 01 02 25.42 +39 06 37.2          18.3 VqET062703
     K16T10W  C2016 10 05.28101 01 02 27.13 +39 05 56.0          18.3 VqET062703
     K16T10W KC2016 10 05.30712 01 02 30.72 +39 03 07.4          18.0 RqET062H36
     K16T10W KC2016 10 05.31307 01 02 32.15 +39 02 33.1          18.5 RqET062H36
     K16T10W KC2016 10 05.31477 01 02 32.59 +39 02 22.9          18.3 RqET062H36
     K16T10W KC2016 10 05.31647 01 02 32.98 +39 02 12.8          18.6 RqET062H36
     K16T10W KC2016 10 05.32242 01 02 34.44 +39 01 37.8          18.5 RqET062H36
     K16T10W KC2016 10 05.36157101 02 42.85 +38 57 38.7          18.5 VuET062H21
     K16T10W  C2016 10 05.36179 01 02 45.93 +38 58 08.0          18.5 VqET062G96
     K16T10W KC2016 10 05.36343201 02 43.33 +38 57 27.4          18.9 VuET062H21
     K16T10W KC2016 10 05.36637901 02 44.07 +38 57 09.6          19.2 VuET062H21
     K16T10W  C2016 10 05.36656 01 02 47.03 +38 57 39.9          19.2 VqET062G96
     K16T10W  C2016 10 05.37137 01 02 48.15 +38 57 11.8          18.7 VqET062G96
     K16T10W  C2016 10 05.37612 01 02 49.26 +38 56 43.9          18.2 VqET062G96
     K16T10W  C2016 10 05.60066 01 03 59.06 +38 35 53.5          19.2 RoET062300
     K16T10W  C2016 10 05.60297 01 03 59.58 +38 35 40.9          19.0 RoET062300
     K16T10W  C2016 10 05.60529 01 04 00.09 +38 35 27.8          19.0 RoET062300
     K16T10W KC2016 10 05.77944 01 04 52.61 +38 18 46.8          19.8 VSET062151
     K16T10W KC2016 10 05.78219 01 04 53.30 +38 18 34.5          18.4 VSET062151
     K16T10W KC2016 10 05.79140 01 04 55.51 +38 17 49.8          19.0 VSET062151
     K16T10W KC2016 10 05.79279 01 04 55.87 +38 17 42.9          19.1 VSET062151
     K16T10W KC2016 10 05.79418 01 04 56.24 +38 17 36.0          19.2 VSET062151
     K16T10W KC2016 10 05.84070 01 05 07.31 +38 13 56.9          18.6 RqET062160
     K16T10W KC2016 10 05.84340 01 05 07.91 +38 13 43.7          18.8 RqET062160
     K16T10W KC2016 10 05.84610 01 05 08.48 +38 13 30.4          18.6 RqET062160
     K16T10W KC2016 10 05.86379 01 05 11.88 +38 12 01.0                SET062595
     K16T10W KC2016 10 05.87247 01 05 13.78 +38 11 17.9          18.7 VSET062595
     K16T10W KC2016 10 05.88115 01 05 15.62 +38 10 34.9          18.8 VSET062595
     K16T10W KC2016 10 05.92510 01 05 26.54 +38 06 32.5          19.2 RoET062J41
     K16T10W KC2016 10 05.93444 01 05 28.56 +38 05 46.3          19.1 RoET062J41
     K16T10W KC2016 10 05.94264 01 05 30.34 +38 05 05.5          18.7 RoET062J41
     K16T10W KC2016 10 06.15187 01 06 23.29 +37 48 19.9          18.9 RqET062850
     K16T10W KC2016 10 06.20017 01 06 32.26 +37 44 33.0          18.9 RqET062850
     K16T10W KC2016 10 06.21603 01 06 35.13 +37 43 17.8          18.8 RqET062850
     K16T10W KC2016 10 06.23181 01 06 37.93 +37 42 02.4          18.7 RqET062850
     K16T10W  C2016 10 06.31366 01 06 56.17 +37 35 40.5          18.3 RoET062926
     K16T10W  C2016 10 06.31897 01 06 57.08 +37 35 15.3          19.3 RoET062926
     K16T10W  C2016 10 06.32525 01 06 58.16 +37 34 45.3          18.6 RoET062926
     K16T10W  C2016 10 06.64884 01 08 09.31 +37 09 52.2          18.6 RoET062300
     K16T10W  C2016 10 06.65116 01 08 09.65 +37 09 41.7          18.6 RoET062300
     K16T10W  C2016 10 06.65348 01 08 09.98 +37 09 31.2          18.7 RoET062300
     K16T10W KC2016 10 06.94694 01 09 13.74 +36 47 54.0          18.7 VqET062958
     K16T10W KC2016 10 06.95472 01 09 14.90 +36 47 22.1          19.3 VqET062958
     K16T10W KC2016 10 06.96249 01 09 16.10 +36 46 50.4          19.3 VqET062958
     K16T10W KC2016 10 07.21098 01 10 03.11 +36 30 04.6          18.8 RqET062850
     K16T10W KC2016 10 07.22552 01 10 05.15 +36 29 07.3          19.2 RqET062850
     K16T10W KC2016 10 07.24020 01 10 07.07 +36 28 07.0          19.3 RqET062850
     K16T10W  C2016 10 07.26512 01 10 13.90 +36 26 30.3          18.8 VqET062I52
     K16T10W  C2016 10 07.26871 01 10 14.38 +36 26 16.0          19.5 VqET062I52
     K16T10W  C2016 10 07.28009 01 10 15.89 +36 25 31.7          19.1 VqET062I52
     K16T10W  C2016 10 07.30360 01 10 18.90 +36 23 58.8          17.6 VqET062G96
     K16T10W  C2016 10 07.30582 01 10 19.29 +36 23 50.3          18.7 VqET062G96
     K16T10W  C2016 10 07.30839 01 10 19.65 +36 23 40.2          18.6 VqET062G96
     K16T10W  C2016 10 07.31007 01 10 19.84 +36 23 33.6          18.6 VqET062G96
 
Observer details:
151 Eschenberg Observatory, Winterthur.  Observer M. Griesser.  0.60-m f/3.8
    astrograph + CCD.
160 Castelmartini.  Observers M. Jaeger, E. Prosperi, S. Prosperi, W. Vollmann.
    Measurer E. Prosperi.  0.35-m f/10 Schmidt-Cassegrain + CCD.
300 Bisei Spaceguard Center--BATTeRS.  Observers S. Okumura, A. Asami.  1.0-m
    f/3.0 reflector + CCD.
595 Farra d'Isonzo.  Observer E. Pettarin.  0.61-m f/4.0 reflector + CCD.
703 Catalina Sky Survey.  Observer D. C. Fuls.  Measurers E. J. Christensen,
    D. C. Fuls, A. R. Gibbs, A. D. Grauer, J. A. Johnson, R. A. Kowalski,
    S. M. Larson, G. J. Leonard, R. G. Matheny, R. L. Seaman, F. C. Shelly.
    0.68-m Schmidt + CCD.
850 Cordell-Lorenz Observatory, Sewanee.  Observers D. T. Durig, A. Tiric,
    D. J. Fisher.  0.3-m f/9.4 Schmidt-Cassegrain + CCD.
926 Tenagra II Observatory.  Observers M. Schwartz, P. R. Holvorcem.  Measurer
    M. Schwartz.  0.81-m f/7 Ritchey-Chretien + CCD.
958 Observatoire de Dax.  Observers P. Dupouy, J. B. de Vanssay.  Measurer
    P. Dupouy.  0.43-m f/2.7 reflector + CCD.
G96 Mt. Lemmon Survey.  Observers R. G. Matheny, G. J. Leonard.  Measurers
    E. J. Christensen, D. C. Fuls, A. R. Gibbs, A. D. Grauer, J. A. Johnson,
    R. A. Kowalski, S. M. Larson, G. J. Leonard, R. G. Matheny, R. L. Seaman,
    F. C. Shelly.  1.5-m reflector + 10K CCD.
H01 Magdalena Ridge Observatory, Socorro.  Observers W. H. Ryan, E. V. Ryan.
    Measurer W. H. Ryan.  2.4-m f/8.9 reflector + CCD.
H21 Astronomical Research Observatory, Westfield.  Observer R. Holmes.
    Measurers S. Foglia, L. Buzzi, T. Linder, R. Holmes.  0.61-m f/4.5
    astrograph + CCD.
H36 Sandlot Observatory, Scranton.  Observer G. Hug.  0.56-m reflector + CCD.
I52 Steward Observatory, Mt. Lemmon Station.  Observer J. A. Johnson.
    Measurers E. J. Christensen, D. C. Fuls, A. R. Gibbs, A. D. Grauer,
    J. A. Johnson, R. A. Kowalski, S. M. Larson, G. J. Leonard, R. G. Matheny,
    R. L. Seaman, F. C. Shelly.  1.0-m reflector + CCD.
J41 Raheny.  Observer D. Grennan.  0.35-m f/3.8 reflector + CCD.
 
Orbital elements:
2016 TW10                                                Earth MOID = 0.0161 AU
Epoch 2016 July 31.0 TT = JDT 2457600.5                 MPC
M 351.97167              (2000.0)            P               Q
n   0.30709921     Peri.  327.35001     +0.77401404     +0.63309234
a   2.1757897      Node   353.34539     -0.56122690     +0.67880945
e   0.5870701      Incl.    4.85924     -0.29313244     +0.37203739
P   3.21           H   23.5           G   0.15           U   5
Residuals in seconds of arc
161005 703  0.0   0.6-    161005 G96  0.0   0.1+    161006 850  0.0   0.3-
161005 703  0.5-  0.2-    161005 300  0.0   0.8+    161006 926  0.1-  0.3+
161005 703  0.0   0.6+    161005 300  0.3+  0.6+    161006 926  0.1-  0.3+
161005 H01  0.1-  0.1-    161005 300  0.5+  0.1-    161006 926  0.0   0.2+
161005 H01  0.0   0.0     161005 151  0.2-  1.3-    161006 300  0.7+  0.3+
161005 H01  0.1-  0.1-    161005 151  0.1-  0.1-    161006 300  0.4+  0.3+
161005 H01  0.1-  0.1-    161005 151  0.5-  0.3+    161006 300  0.0   0.2+
161005 703  0.0   0.0     161005 151  0.2-  0.2+    161006 958  0.7+  1.0-
161005 703  0.1-  0.1-    161005 151  0.2+  0.1+    161006 958  0.3+  1.0-
161005 703  0.2-  0.2+    161005 160  0.2+  0.0     161006 958  0.4+  0.6-
161005 H36  0.1+  0.6-    161005 160  0.2+  0.1+    161007 850  0.3-  0.8+
161005 H36  0.1+  0.1+    161005 160  0.2-  0.0     161007 850  0.6+  1.3+
161005 H36  0.5+  0.1-    161005 595  0.0   0.2+    161007 850  0.1-  0.2-
161005 H36  0.3+  0.1-    161005 595  0.4+  0.0     161007 I52  0.3-  0.0
161005 H36  0.7+  0.0     161005 595  0.3+  0.0     161007 I52  0.2-  0.3-
161005 H21  0.3-  0.2+    161005 J41  0.2-  0.5+    161007 I52  0.3-  0.1-
161005 G96  0.1+  0.1+    161005 J41  0.2-  0.3+    161007 G96  1.2-  0.3-
161005 H21  0.1-  0.1+    161005 J41  0.0   0.1-    161007 G96  0.0   0.0
161005 H21  0.0   0.0     161006 850  0.3-  0.1-    161007 G96  0.3+  0.1+
161005 G96  0.0   0.1-    161006 850  0.0   0.2-    161007 G96  0.0   0.2+
161005 G96  0.0   0.1+    161006 850  0.2+  0.2-

Ephemeris:
2016 TW10                a,e,i = 2.18, 0.59, 5                   q = 0.8984
Date    TT    R. A. (2000) Decl.     Delta      r     Elong.  Phase     V
2016 09 07    13 44 42.7 -19 25 41   0.1485  0.9134    47.2   125.9    24.5
...
2016 09 22    14 21 43.3 -04 27 00   0.04058 0.9713    36.5   142.1    23.6
...
2016 09 30    23 31 58.2 +57 03 36   0.02620 1.0166   124.7    54.1    17.6
...
2016 10 06    01 05 41.2 +38 01 00   0.06588 1.0555   146.8    31.2    19.0
2016 10 07    01 09 21.2 +36 44 33   0.07297 1.0623   148.5    29.5    19.2
2016 10 08    01 12 16.1 +35 40 16   0.08013 1.0692   149.9    27.9    19.4
...
2016 10 14    01 21 51.2 +31 34 31   0.1242  1.1125   156.5    20.9    20.2
...
2016 10 22    01 26 56.5 +28 38 56   0.1865  1.1738   161.8    15.4    21.0
...
2016 11 06    01 32 36.6 +25 24 54   0.3184  1.2959   160.6    14.7    22.4

A. U. Tomatic                (C) Copyright 2016 MPC           M.P.E.C. 2016-T62




More information about the Iaude mailing list